Shelbyville, IN

8:32 AM EST on December 15, 2019 (GMT -0500)
Shelbyville Municipal

Weather History for KGEZ - October, 2019

Change the Weather History Date:

Wednesday, October 23, 2019

  Actual Average Record
Temperature  
Mean Temperature 51 °F 52 °F  
Max Temperature 66 °F 63 °F 79 °F (2015)
Min Temperature 36 °F 41 °F 28 °F (1998)
Degree Days  
Heating Degree Days 14 13  
Month to date heating degree days 174 235  
Since 1 July heating degree days 177 320  
Cooling Degree Days 0 0  
Month to date cooling degree days 36 11  
Year to date cooling degree days 1330 910  
Moisture  
Dew Point 33 °F    
Average Humidity 59    
Maximum Humidity 89    
Minimum Humidity 28    
Precipitation  
Precipitation 0.00 in 0.10 in 0.79 in (2004)
Month to date precipitation 1.86 2.38  
Year to date precipitation 34.07 35.83  
Sea Level Pressure  
Sea Level Pressure 30.05 in    
Wind  
Wind Speed 10 mph (SSW)    
Max Wind Speed 21 mph    
Max Gust Speed 29 mph    
Visibility 10 miles    
Events      
T = Trace of Precipitation, MM = Missing Value Source: NWS Daily Summary

Daily Weather History Graph

Daily Weather History Graph

Search for Another Location

Airport or City:

Astronomy

Oct. 23, 2019 Rise Set
Actual Time 8:01 AM EDT 6:53 PM EDT
Civil Twilight 7:33 AM EDT 7:20 PM EDT
Nautical Twilight 7:02 AM EDT 7:51 PM EDT
Astronomical Twilight 6:31 AM EDT 8:22 PM EDT
Moon 2:20 AM EDT (10/23) 4:41 PM EDT (10/23)
Length of Visible Light 11h 46m
Length of Day
10h 51m
Waning Crescent, 27% of the Moon is Illuminated
Oct 23
Waning Crescent
Oct 27
New
Nov 4
First Quarter
Nov 12
Full
Nov 19
Last Quarter

Hourly Weather History & Observations

Time (EDT) Temp. Windchill Dew Point Humidity Pressure Visibility Wind Dir Wind Speed Gust Speed Precip Events Conditions
12:53 AM 44.1 °F 40.1 °F 36.0 °F 73% 29.94 in 10.0 mi South 6.9 mph - N/A   Clear
1:53 AM 42.1 °F 37.7 °F 35.1 °F 76% 29.95 in 10.0 mi SSW 6.9 mph - N/A   Clear
2:53 AM 39.9 °F 34.5 °F 34.0 °F 79% 29.98 in 10.0 mi SSW 8.1 mph - N/A   Clear
3:53 AM 39.9 °F 35.1 °F 33.1 °F 77% 29.99 in 10.0 mi SW 6.9 mph - N/A   Clear
4:53 AM 39.0 °F 34.8 °F 33.1 °F 79% 30.00 in 10.0 mi South 5.8 mph - N/A   Clear
5:53 AM 37.9 °F 32.1 °F 32.0 °F 79% 30.01 in 10.0 mi South 8.1 mph - N/A   Clear
6:53 AM 37.0 °F 31.6 °F 32.0 °F 82% 30.03 in 10.0 mi South 6.9 mph - N/A   Clear
7:53 AM 36.0 °F - 32.0 °F 86% 30.06 in 10.0 mi North - - N/A   Clear
8:53 AM 37.9 °F 33.5 °F 34.0 °F 86% 30.08 in 10.0 mi SSW 5.8 mph - N/A   Clear
9:53 AM 46.0 °F 42.5 °F 36.0 °F 68% 30.10 in 10.0 mi SSW 6.9 mph - N/A   Clear
10:53 AM 52.0 °F - 35.1 °F 53% 30.11 in 10.0 mi SSW 10.4 mph - N/A   Clear
11:53 AM 57.9 °F - 32.0 °F 37% 30.10 in 10.0 mi SSW 17.3 mph 25.3 mph N/A   Clear
12:53 PM 61.0 °F - 32.0 °F 34% 30.10 in 10.0 mi SSW 15.0 mph 26.5 mph N/A   Clear
1:53 PM 64.0 °F - 33.1 °F 31% 30.09 in 10.0 mi SSW 13.8 mph 25.3 mph N/A   Clear
2:53 PM 64.9 °F - 32.0 °F 29% 30.06 in 10.0 mi SSW 13.8 mph 23.0 mph N/A   Clear
3:53 PM 64.9 °F - 32.0 °F 29% 30.05 in 10.0 mi South 18.4 mph 28.8 mph N/A   Clear
4:53 PM 64.9 °F - 30.9 °F 28% 30.05 in 10.0 mi SSW 9.2 mph 23.0 mph N/A   Clear
5:53 PM 63.0 °F - 32.0 °F 31% 30.05 in 10.0 mi South 12.7 mph 24.2 mph N/A   Clear
6:53 PM 59.0 °F - 34.0 °F 39% 30.06 in 10.0 mi South 9.2 mph - N/A   Clear
7:53 PM 57.0 °F - 34.0 °F 42% 30.08 in 10.0 mi South 9.2 mph - N/A   Clear
8:53 PM 57.0 °F - 34.0 °F 42% 30.09 in 10.0 mi South 11.5 mph - N/A   Clear
9:53 PM 57.0 °F - 34.0 °F 42% 30.07 in 10.0 mi South 15.0 mph - N/A   Clear
10:53 PM 54.0 °F - 35.1 °F 49% 30.09 in 10.0 mi South 10.4 mph - N/A   Clear
11:53 PM 52.0 °F - 35.1 °F 53% 30.12 in 10.0 mi South 8.1 mph - N/A   Clear